Location: *
(45.5224°N, 122.7471°W)
Time: 04:46:43
(UTC+00:00)

Meteor 2-13 Rocket - Pass Details

Date: 09 April 2020
Orbit: 937 x 957 km, 82.5° (Epoch: 24 May)

Event Time Altitude Azimuth Distance (km) Brightness Sun altitude
Rises 12:50:15 0° 188° (S) 3,581 7.2 -8.4°
Reaches altitude 10° 12:52:43 10° 189° (S) 2,641 6.5 -8.0°
Maximum altitude 12:58:46 85° 279° (W) 948 4.5 -7.0°
Drops below altitude 10° 13:04:52 10° 8° (N) 2,666 7.2 -6.0°
Sets 13:07:22 0° 9° (N) 3,617 7.9 -5.5°
